Time,TemperatureF,DewpointF,PressureIn,WindDirection,WindDirectionDegrees,WindSpeedMPH,WindSpeedGustMPH,Humidity,HourlyPrecipIn,Conditions,Clouds,dailyrainin,SoftwareType,DateUTC
2013-02-11 00:00:00,35.8,33.4,30.11,East,90,0.0,0.0,91,0.00,,,0.00,WUHU21623XXSP,2013-02-11 05:00:00,
2013-02-11 00:05:00,35.8,33.4,30.10,NNW,337,0.0,0.0,91,0.00,,,0.00,WUHU21623XXSP,2013-02-11 05:05:00,
2013-02-11 00:10:00,35.8,33.4,30.10,WNW,292,0.0,0.0,91,0.00,,,0.00,WUHU21623XXSP,2013-02-11 05:10:00,
2013-02-11 00:15:00,35.8,33.4,30.09,North,0,0.0,0.0,91,0.00,,,0.00,WUHU21623XXSP,2013-02-11 05:15:00,
2013-02-11 00:20:00,36.0,33.5,30.09,ENE,67,0.0,0.0,91,0.00,,,0.00,WUHU21623XXSP,2013-02-11 05:20:00,
2013-02-11 00:25:00,36.1,33.7,30.09,SSW,202,0.0,0.0,91,0.00,,,0.00,WUHU21623XXSP,2013-02-11 05:25:00,
2013-02-11 00:30:00,36.3,33.7,30.09,South,180,0.0,0.0,91,0.00,,,0.00,WUHU21623XXSP,2013-02-11 05:30:00,
2013-02-11 00:35:00,36.3,33.9,30.09,NNE,22,1.6,1.6,91,0.00,,,0.00,WUHU21623XXSP,2013-02-11 05:35:00,
2013-02-11 00:40:00,36.5,34.1,30.08,ENE,67,3.6,3.6,91,0.00,,,0.00,WUHU21623XXSP,2013-02-11 05:40:00,
2013-02-11 00:45:00,36.7,34.3,30.08,North,0,0.0,3.6,91,0.00,,,0.00,WUHU21623XXSP,2013-02-11 05:45:00,
2013-02-11 00:50:00,36.9,34.4,30.08,SW,225,0.0,0.0,91,0.00,,,0.00,WUHU21623XXSP,2013-02-11 05:50:00,
2013-02-11 00:55:00,37.0,34.6,30.08,WSW,247,0.0,0.0,91,0.00,,,0.00,WUHU21623XXSP,2013-02-11 05:55:00,
2013-02-11 01:00:00,37.0,34.6,30.08,NE,45,0.0,0.0,91,0.00,,,0.00,WUHU21623XXSP,2013-02-11 06:00:00,
2013-02-11 01:05:00,37.2,34.8,30.07,SSW,202,0.0,0.0,91,0.00,,,0.00,WUHU21623XXSP,2013-02-11 06:05:00,
2013-02-11 01:11:00,37.4,35.0,30.08,NNW,337,0.0,0.7,91,0.00,,,0.00,WUHU21623XXSP,2013-02-11 06:11:00,
2013-02-11 01:16:00,37.6,35.1,30.07,NNW,337,0.0,0.7,91,0.00,,,0.00,WUHU21623XXSP,2013-02-11 06:16:00,
2013-02-11 01:21:00,37.8,35.3,30.07,NNW,337,0.0,2.0,91,0.00,,,0.00,WUHU21623XXSP,2013-02-11 06:21:00,
2013-02-11 01:26:00,37.9,35.5,30.06,North,0,0.0,2.0,91,0.00,,,0.00,WUHU21623XXSP,2013-02-11 06:26:00,
2013-02-11 01:30:00,37.9,35.5,30.06,North,0,0.0,0.0,91,0.00,,,0.00,WUHU21623XXSP,2013-02-11 06:30:00,
2013-02-11 01:36:00,37.9,35.5,30.06,East,90,1.6,1.6,91,0.00,,,0.00,WUHU21623XXSP,2013-02-11 06:36:00,
2013-02-11 01:41:00,37.9,35.5,30.05,WNW,292,0.0,1.6,91,0.00,,,0.00,WUHU21623XXSP,2013-02-11 06:41:00,
2013-02-11 01:46:00,37.9,35.5,30.05,NNE,22,0.0,0.9,91,0.00,,,0.00,WUHU21623XXSP,2013-02-11 06:46:00,
2013-02-11 01:51:00,38.1,35.7,30.05,NW,315,0.0,0.9,91,0.00,,,0.00,WUHU21623XXSP,2013-02-11 06:51:00,
2013-02-11 01:56:00,38.1,35.7,30.05,SW,225,0.0,0.0,91,0.00,,,0.00,WUHU21623XXSP,2013-02-11 06:56:00,
2013-02-11 02:01:00,38.1,35.7,30.04,ESE,112,0.0,0.0,91,0.00,,,0.00,WUHU21623XXSP,2013-02-11 07:01:00,
2013-02-11 02:06:00,37.9,35.5,30.04,East,90,0.0,0.0,91,0.00,,,0.00,WUHU21623XXSP,2013-02-11 07:06:00,
2013-02-11 02:11:00,38.1,35.7,30.04,NE,45,0.0,0.0,91,0.00,,,0.00,WUHU21623XXSP,2013-02-11 07:11:00,
2013-02-11 02:16:00,38.1,35.7,30.05,North,0,0.0,0.0,91,0.00,,,0.00,WUHU21623XXSP,2013-02-11 07:16:00,
2013-02-11 02:21:00,37.9,35.5,30.04,NNE,22,0.0,0.0,91,0.00,,,0.00,WUHU21623XXSP,2013-02-11 07:21:00,
2013-02-11 02:26:00,37.9,35.5,30.04,West,270,0.0,0.0,91,0.00,,,0.00,WUHU21623XXSP,2013-02-11 07:26:00,
2013-02-11 02:31:00,37.9,35.5,30.04,NNE,22,0.0,0.0,91,0.00,,,0.00,WUHU21623XXSP,2013-02-11 07:31:00,
2013-02-11 02:36:00,37.9,35.5,30.04,NNE,22,0.0,2.2,91,0.00,,,0.00,WUHU21623XXSP,2013-02-11 07:36:00,
2013-02-11 02:41:00,37.9,35.5,30.04,North,0,0.0,2.2,91,0.00,,,0.00,WUHU21623XXSP,2013-02-11 07:41:00,
2013-02-11 02:46:00,37.8,35.3,30.04,NNE,22,0.0,0.9,91,0.00,,,0.00,WUHU21623XXSP,2013-02-11 07:46:00,
2013-02-11 02:51:00,37.9,35.5,30.04,SW,225,0.0,0.0,91,0.00,,,0.00,WUHU21623XXSP,2013-02-11 07:51:00,
2013-02-11 02:56:00,37.9,35.5,30.03,NNE,22,0.0,0.0,91,0.00,,,0.00,WUHU21623XXSP,2013-02-11 07:56:00,
2013-02-11 03:01:00,37.8,35.3,30.03,ESE,112,0.0,0.0,91,0.00,,,0.00,WUHU21623XXSP,2013-02-11 08:01:00,
2013-02-11 03:06:00,37.8,35.3,30.03,WNW,292,0.0,0.0,91,0.00,,,0.00,WUHU21623XXSP,2013-02-11 08:06:00,
2013-02-11 03:11:00,37.9,35.5,30.03,NNE,22,0.0,0.0,91,0.00,,,0.00,WUHU21623XXSP,2013-02-11 08:11:00,
2013-02-11 03:16:00,37.9,35.5,30.03,NNE,22,0.0,0.0,91,0.00,,,0.00,WUHU21623XXSP,2013-02-11 08:16:00,
2013-02-11 03:21:00,37.9,35.5,30.03,NE,45,0.0,0.0,91,0.00,,,0.00,WUHU21623XXSP,2013-02-11 08:21:00,
2013-02-11 03:26:00,38.1,35.7,30.02,West,270,0.0,0.0,91,0.00,,,0.00,WUHU21623XXSP,2013-02-11 08:26:00,
2013-02-11 03:31:00,38.3,35.9,30.02,NNE,22,0.0,0.0,91,0.00,,,0.00,WUHU21623XXSP,2013-02-11 08:31:00,
2013-02-11 03:36:00,38.3,35.9,30.02,SW,225,0.0,0.0,91,0.00,,,0.00,WUHU21623XXSP,2013-02-11 08:36:00,
2013-02-11 03:41:00,38.3,35.9,30.01,East,90,0.0,0.0,91,0.00,,,0.00,WUHU21623XXSP,2013-02-11 08:41:00,
2013-02-11 03:46:00,38.3,35.9,30.00,North,0,0.0,0.0,91,0.00,,,0.00,WUHU21623XXSP,2013-02-11 08:46:00,
2013-02-11 03:51:00,38.1,35.7,30.01,NNW,337,0.0,0.0,91,0.00,,,0.00,WUHU21623XXSP,2013-02-11 08:51:00,
2013-02-11 03:56:00,38.1,35.7,30.00,NW,315,0.0,0.0,91,0.00,,,0.00,WUHU21623XXSP,2013-02-11 08:56:00,
2013-02-11 04:01:00,38.1,35.7,30.00,WNW,292,0.0,0.0,91,0.00,,,0.00,WUHU21623XXSP,2013-02-11 09:01:00,
2013-02-11 04:06:00,38.3,35.9,30.00,NE,45,0.0,0.0,91,0.00,,,0.00,WUHU21623XXSP,2013-02-11 09:06:00,
2013-02-11 04:11:00,38.3,35.9,30.00,North,0,0.0,0.0,91,0.00,,,0.00,WUHU21623XXSP,2013-02-11 09:11:00,
2013-02-11 04:16:00,38.5,36.0,29.99,ESE,112,0.0,0.0,91,0.00,,,0.00,WUHU21623XXSP,2013-02-11 09:16:00,
2013-02-11 04:21:00,38.3,35.9,29.99,ENE,67,0.0,0.0,91,0.00,,,0.00,WUHU21623XXSP,2013-02-11 09:21:00,
2013-02-11 04:26:00,38.3,35.9,29.99,East,90,0.0,0.0,91,0.00,,,0.00,WUHU21623XXSP,2013-02-11 09:26:00,
2013-02-11 04:31:00,38.1,35.7,29.99,ESE,112,0.0,0.0,91,0.00,,,0.00,WUHU21623XXSP,2013-02-11 09:31:00,
2013-02-11 04:37:00,38.1,35.7,29.99,NW,315,0.0,0.0,91,0.00,,,0.00,WUHU21623XXSP,2013-02-11 09:37:00,
2013-02-11 04:42:00,38.1,35.7,29.98,NE,45,0.0,0.0,91,0.00,,,0.00,WUHU21623XXSP,2013-02-11 09:42:00,
2013-02-11 04:47:00,38.1,36.0,29.99,ENE,67,0.0,0.0,92,0.00,,,0.00,WUHU21623XXSP,2013-02-11 09:47:00,
2013-02-11 04:52:00,38.1,35.7,29.98,NNE,22,0.0,0.0,91,0.00,,,0.00,WUHU21623XXSP,2013-02-11 09:52:00,
2013-02-11 04:57:00,38.1,36.0,29.98,NNW,337,0.0,0.0,92,0.00,,,0.00,WUHU21623XXSP,2013-02-11 09:57:00,
2013-02-11 05:02:00,38.1,35.7,29.98,ENE,67,0.0,0.0,91,0.00,,,0.00,WUHU21623XXSP,2013-02-11 10:02:00,
2013-02-11 05:07:00,37.9,35.8,29.97,NW,315,0.0,0.0,92,0.00,,,0.00,WUHU21623XXSP,2013-02-11 10:07:00,
2013-02-11 05:12:00,37.9,35.8,29.97,NNE,22,0.0,0.0,92,0.00,,,0.00,WUHU21623XXSP,2013-02-11 10:12:00,
2013-02-11 05:17:00,37.9,35.8,29.98,NW,315,0.0,0.0,92,0.00,,,0.00,WUHU21623XXSP,2013-02-11 10:17:00,
2013-02-11 05:22:00,37.9,35.8,29.98,NW,315,0.0,0.0,92,0.00,,,0.00,WUHU21623XXSP,2013-02-11 10:22:00,
2013-02-11 05:27:00,37.9,35.8,29.97,North,0,0.0,0.0,92,0.00,,,0.00,WUHU21623XXSP,2013-02-11 10:27:00,
2013-02-11 05:32:00,37.9,35.8,29.96,NNE,22,0.0,0.0,92,0.00,,,0.00,WUHU21623XXSP,2013-02-11 10:32:00,
2013-02-11 05:37:00,37.8,35.6,29.97,NNW,337,0.0,0.0,92,0.00,,,0.00,WUHU21623XXSP,2013-02-11 10:37:00,
2013-02-11 05:42:00,37.6,35.4,29.97,NNW,337,0.0,0.0,92,0.00,,,0.00,WUHU21623XXSP,2013-02-11 10:42:00,
2013-02-11 05:47:00,37.4,35.2,29.97,North,0,0.0,0.0,92,0.00,,,0.00,WUHU21623XXSP,2013-02-11 10:47:00,
2013-02-11 05:52:00,37.2,35.1,29.97,West,270,0.0,0.0,92,0.00,,,0.00,WUHU21623XXSP,2013-02-11 10:52:00,
2013-02-11 05:57:00,37.6,35.4,29.97,NNE,22,0.0,0.0,92,0.00,,,0.00,WUHU21623XXSP,2013-02-11 10:57:00,
2013-02-11 06:02:00,37.6,35.4,29.97,NNE,22,0.0,0.0,92,0.00,,,0.00,WUHU21623XXSP,2013-02-11 11:02:00,
2013-02-11 06:07:00,37.6,35.4,29.97,NNE,22,0.0,0.0,92,0.00,,,0.00,WUHU21623XXSP,2013-02-11 11:07:00,
2013-02-11 06:12:00,37.9,35.8,29.96,NE,45,1.8,1.8,92,0.00,,,0.00,WUHU21623XXSP,2013-02-11 11:12:00,
2013-02-11 06:17:00,38.1,36.0,29.96,East,90,2.5,2.5,92,0.00,,,0.00,WUHU21623XXSP,2013-02-11 11:17:00,
2013-02-11 06:22:00,38.1,36.0,29.96,NE,45,6.3,6.3,92,0.00,,,0.00,WUHU21623XXSP,2013-02-11 11:22:00,
2013-02-11 06:27:00,38.3,36.1,29.96,East,90,0.0,6.3,92,0.00,,,0.00,WUHU21623XXSP,2013-02-11 11:27:00,
2013-02-11 06:32:00,38.5,36.3,29.97,NE,45,10.7,10.7,92,0.00,,,0.00,WUHU21623XXSP,2013-02-11 11:32:00,
2013-02-11 06:37:00,38.5,36.3,29.97,ENE,67,2.9,10.7,92,0.00,,,0.00,WUHU21623XXSP,2013-02-11 11:37:00,
2013-02-11 06:42:00,38.8,36.7,29.97,NE,45,0.0,2.9,92,0.00,,,0.00,WUHU21623XXSP,2013-02-11 11:42:00,
2013-02-11 06:47:00,38.8,36.4,29.96,NW,315,0.0,2.0,91,0.00,,,0.00,WUHU21623XXSP,2013-02-11 11:47:00,
2013-02-11 06:52:00,38.8,36.1,29.97,ENE,67,0.0,0.0,90,0.00,,,0.00,WUHU21623XXSP,2013-02-11 11:52:00,
2013-02-11 06:57:00,38.8,35.9,29.97,East,90,0.0,1.3,89,0.00,,,0.00,WUHU21623XXSP,2013-02-11 11:57:00,
2013-02-11 07:02:00,38.8,35.9,29.97,NNE,22,3.6,3.6,88,0.00,,,0.00,WUHU21623XXSP,2013-02-11 12:02:00,
2013-02-11 07:07:00,38.5,35.2,29.97,ENE,67,0.0,3.6,88,0.00,,,0.00,WUHU21623XXSP,2013-02-11 12:07:00,
2013-02-11 07:12:00,38.5,34.9,29.97,East,90,0.0,4.9,87,0.00,,,0.00,WUHU21623XXSP,2013-02-11 12:12:00,
2013-02-11 07:17:00,38.5,34.9,29.97,East,90,0.0,4.9,87,0.00,,,0.00,WUHU21623XXSP,2013-02-11 12:17:00,
2013-02-11 07:22:00,38.8,34.7,29.97,SSE,157,2.5,3.6,85,0.00,,,0.00,WUHU21623XXSP,2013-02-11 12:22:00,
2013-02-11 07:27:00,38.7,34.5,29.98,ESE,112,0.0,3.6,85,0.00,,,0.00,WUHU21623XXSP,2013-02-11 12:27:00,
2013-02-11 07:32:00,38.5,34.3,29.98,East,90,8.5,8.5,85,0.00,,,0.00,WUHU21623XXSP,2013-02-11 12:32:00,
2013-02-11 07:37:00,38.5,34.1,29.98,NNE,22,8.5,8.5,84,0.00,,,0.00,WUHU21623XXSP,2013-02-11 12:37:00,
2013-02-11 07:42:00,38.5,33.8,29.98,North,0,0.0,8.5,83,0.00,,,0.00,WUHU21623XXSP,2013-02-11 12:42:00,
2013-02-11 07:47:00,38.5,33.8,29.99,North,0,0.0,6.3,83,0.00,,,0.00,WUHU21623XXSP,2013-02-11 12:47:00,
2013-02-11 07:52:00,37.9,33.5,29.99,NNE,22,3.1,5.1,84,0.00,,,0.00,WUHU21623XXSP,2013-02-11 12:52:00,
2013-02-11 07:57:00,37.6,33.2,29.99,ENE,67,0.0,5.1,84,0.00,,,0.00,WUHU21623XXSP,2013-02-11 12:57:00,
2013-02-11 08:02:00,37.6,33.2,29.99,ENE,67,0.0,0.0,84,0.00,,,0.00,WUHU21623XXSP,2013-02-11 13:02:00,
2013-02-11 08:07:00,37.6,33.2,29.99,ENE,67,0.0,0.0,84,0.00,,,0.00,WUHU21623XXSP,2013-02-11 13:07:00,
2013-02-11 08:13:00,37.6,33.2,29.99,ENE,67,0.0,0.0,84,0.00,,,0.00,WUHU21623XXSP,2013-02-11 13:13:00,
2013-02-11 08:22:00,36.7,32.3,29.99,NNE,22,2.2,2.2,84,0.00,,,0.00,WUHU21623XXSP,2013-02-11 13:22:00,
2013-02-11 08:27:00,36.9,32.4,29.99,North,0,0.9,2.2,84,0.00,,,0.00,WUHU21623XXSP,2013-02-11 13:27:00,
2013-02-11 08:32:00,36.7,32.3,29.99,ENE,67,4.9,4.9,84,0.00,,,0.00,WUHU21623XXSP,2013-02-11 13:32:00,
2013-02-11 08:37:00,36.7,32.3,29.99,East,90,3.8,6.5,83,0.00,,,0.00,WUHU21623XXSP,2013-02-11 13:37:00,
2013-02-11 08:42:00,36.7,32.0,29.99,West,270,0.0,6.5,83,0.00,,,0.00,WUHU21623XXSP,2013-02-11 13:42:00,
2013-02-11 08:47:00,36.9,32.1,29.99,NNW,337,0.0,6.3,83,0.00,,,0.00,WUHU21623XXSP,2013-02-11 13:47:00,
2013-02-11 08:52:00,36.7,31.7,29.99,ENE,67,5.1,5.1,82,0.00,,,0.00,WUHU21623XXSP,2013-02-11 13:52:00,
2013-02-11 08:57:00,36.7,31.4,29.99,SE,135,6.5,6.5,81,0.00,,,0.00,WUHU21623XXSP,2013-02-11 13:57:00,
2013-02-11 09:02:00,36.9,31.6,29.99,ENE,67,0.0,6.5,81,0.00,,,0.00,WUHU21623XXSP,2013-02-11 14:02:00,
2013-02-11 09:07:00,36.9,31.6,29.99,NNE,22,3.6,3.6,81,0.00,,,0.00,WUHU21623XXSP,2013-02-11 14:07:00,
2013-02-11 09:12:00,36.7,31.4,29.99,East,90,2.5,3.6,81,0.00,,,0.00,WUHU21623XXSP,2013-02-11 14:12:00,
2013-02-11 09:17:00,36.7,31.1,29.99,East,90,2.7,6.7,80,0.00,,,0.00,WUHU21623XXSP,2013-02-11 14:17:00,
2013-02-11 09:22:00,36.5,30.9,29.99,NE,45,0.0,6.7,80,0.00,,,0.00,WUHU21623XXSP,2013-02-11 14:22:00,
2013-02-11 09:27:00,36.5,30.6,30.00,NNE,22,8.1,8.1,80,0.00,,,0.00,WUHU21623XXSP,2013-02-11 14:27:00,
2013-02-11 09:32:00,36.5,30.6,30.00,ESE,112,0.0,8.1,79,0.00,,,0.00,WUHU21623XXSP,2013-02-11 14:32:00,
2013-02-11 09:37:00,36.5,30.6,30.00,East,90,0.9,3.6,79,0.00,,,0.00,WUHU21623XXSP,2013-02-11 14:37:00,
2013-02-11 09:42:00,36.5,30.6,30.00,East,90,2.5,3.6,79,0.00,,,0.00,WUHU21623XXSP,2013-02-11 14:42:00,
2013-02-11 09:47:00,36.5,30.6,30.00,North,0,6.0,6.0,79,0.00,,,0.00,WUHU21623XXSP,2013-02-11 14:47:00,
2013-02-11 09:53:00,36.3,30.1,30.00,NNE,22,0.0,6.0,78,0.00,,,0.00,WUHU21623XXSP,2013-02-11 14:53:00,
2013-02-11 09:58:00,36.5,30.3,30.00,North,0,11.6,11.6,78,0.00,,,0.00,WUHU21623XXSP,2013-02-11 14:58:00,
2013-02-11 10:03:00,36.3,30.1,30.00,NNE,22,0.0,18.3,78,0.00,,,0.00,WUHU21623XXSP,2013-02-11 15:03:00,
2013-02-11 10:08:00,36.3,30.1,30.00,NNE,22,5.8,18.3,78,0.00,,,0.00,WUHU21623XXSP,2013-02-11 15:08:00,
2013-02-11 10:13:00,36.3,30.1,30.00,NE,45,6.5,6.5,78,0.00,,,0.00,WUHU21623XXSP,2013-02-11 15:13:00,
2013-02-11 10:18:00,36.3,30.1,30.00,North,0,0.0,6.5,78,0.00,,,0.00,WUHU21623XXSP,2013-02-11 15:18:00,
2013-02-11 10:23:00,36.1,29.9,30.00,North,0,0.0,4.5,78,0.00,,,0.00,WUHU21623XXSP,2013-02-11 15:23:00,
2013-02-11 10:28:00,36.1,29.9,30.00,East,90,2.0,4.5,78,0.00,,,0.00,WUHU21623XXSP,2013-02-11 15:28:00,
2013-02-11 10:33:00,36.0,29.4,30.00,ESE,112,0.0,9.2,77,0.00,,,0.00,WUHU21623XXSP,2013-02-11 15:33:00,
2013-02-11 10:38:00,35.8,29.2,30.01,NE,45,1.8,9.2,77,0.00,,,0.00,WUHU21623XXSP,2013-02-11 15:38:00,
2013-02-11 10:43:00,35.8,29.2,30.01,ENE,67,5.4,5.4,77,0.00,,,0.00,WUHU21623XXSP,2013-02-11 15:43:00,
2013-02-11 10:48:00,35.8,29.2,30.01,ESE,112,6.9,6.9,77,0.00,,,0.00,WUHU21623XXSP,2013-02-11 15:48:00,
2013-02-11 10:53:00,35.8,29.2,30.01,ENE,67,0.0,6.9,77,0.00,,,0.00,WUHU21623XXSP,2013-02-11 15:53:00,
2013-02-11 10:58:00,36.0,29.2,30.01,ENE,67,0.0,0.0,77,0.00,,,0.00,WUHU21623XXSP,2013-02-11 15:58:00,
2013-02-11 11:03:00,36.1,29.3,30.02,NE,45,0.0,0.9,76,0.00,,,0.00,WUHU21623XXSP,2013-02-11 16:03:00,
2013-02-11 11:08:00,36.3,29.4,30.02,ENE,67,3.8,4.0,76,0.00,,,0.00,WUHU21623XXSP,2013-02-11 16:08:00,
2013-02-11 11:13:00,36.3,29.4,30.02,NE,45,2.0,4.7,76,0.00,,,0.00,WUHU21623XXSP,2013-02-11 16:13:00,
2013-02-11 11:18:00,36.3,29.4,30.01,East,90,5.4,5.4,76,0.00,,,0.00,WUHU21623XXSP,2013-02-11 16:18:00,
2013-02-11 11:23:00,36.3,29.4,30.01,East,90,1.1,5.4,76,0.00,,,0.00,WUHU21623XXSP,2013-02-11 16:23:00,
2013-02-11 11:28:00,36.3,29.1,30.01,NNE,22,5.6,5.6,75,0.00,,,0.00,WUHU21623XXSP,2013-02-11 16:28:00,
2013-02-11 11:33:00,36.3,29.1,30.01,NE,45,6.3,11.6,75,0.00,,,0.00,WUHU21623XXSP,2013-02-11 16:33:00,
2013-02-11 11:38:00,36.3,29.1,30.02,ENE,67,3.4,11.6,75,0.00,,,0.00,WUHU21623XXSP,2013-02-11 16:38:00,
2013-02-11 11:43:00,36.3,29.1,30.02,ESE,112,14.3,14.3,75,0.00,,,0.00,WUHU21623XXSP,2013-02-11 16:43:00,
2013-02-11 11:48:00,36.3,28.8,30.01,SE,135,0.0,14.3,74,0.00,,,0.00,WUHU21623XXSP,2013-02-11 16:48:00,
2013-02-11 11:53:00,36.3,28.8,30.01,South,180,8.9,8.9,74,0.00,,,0.00,WUHU21623XXSP,2013-02-11 16:53:00,
2013-02-11 11:58:00,36.1,28.9,30.01,ENE,67,0.0,8.9,75,0.00,,,0.00,WUHU21623XXSP,2013-02-11 16:58:00,
2013-02-11 12:03:00,35.8,28.9,30.01,NNE,22,0.0,4.7,76,0.00,,,0.00,WUHU21623XXSP,2013-02-11 17:03:00,
2013-02-11 12:08:00,36.0,29.1,30.01,ENE,67,5.8,5.8,76,0.00,,,0.00,WUHU21623XXSP,2013-02-11 17:08:00,
2013-02-11 12:13:00,36.0,29.1,30.01,ENE,67,2.9,5.8,76,0.00,,,0.00,WUHU21623XXSP,2013-02-11 17:13:00,
2013-02-11 12:18:00,35.8,28.9,30.01,ESE,112,5.1,5.8,76,0.00,,,0.00,WUHU21623XXSP,2013-02-11 17:18:00,
2013-02-11 12:23:00,35.8,28.9,30.01,ESE,112,7.2,7.2,76,0.00,,,0.00,WUHU21623XXSP,2013-02-11 17:23:00,
2013-02-11 12:28:00,35.4,28.5,30.01,ENE,67,2.9,7.2,76,0.00,,,0.00,WUHU21623XXSP,2013-02-11 17:28:00,
2013-02-11 12:33:00,35.4,28.9,30.01,East,90,2.5,5.1,77,0.00,,,0.00,WUHU21623XXSP,2013-02-11 17:33:00,
2013-02-11 12:38:00,35.4,28.9,30.02,ENE,67,3.1,5.1,77,0.00,,,0.00,WUHU21623XXSP,2013-02-11 17:38:00,
2013-02-11 12:43:00,35.4,28.9,30.01,North,0,2.5,4.5,77,0.00,,,0.00,WUHU21623XXSP,2013-02-11 17:43:00,
2013-02-11 12:48:00,35.2,29.0,30.01,South,180,0.0,4.5,78,0.00,,,0.00,WUHU21623XXSP,2013-02-11 17:48:00,
2013-02-11 12:53:00,35.2,29.0,30.02,NW,315,0.0,2.9,78,0.00,,,0.00,WUHU21623XXSP,2013-02-11 17:53:00,
2013-02-11 12:58:00,34.9,29.0,30.02,East,90,1.6,4.0,79,0.00,,,0.00,WUHU21623XXSP,2013-02-11 17:58:00,
2013-02-11 13:04:00,34.9,29.0,30.02,ENE,67,3.1,4.0,79,0.00,,,0.00,WUHU21623XXSP,2013-02-11 18:04:00,
2013-02-11 13:09:00,34.7,28.8,30.02,East,90,4.5,4.5,79,0.00,,,0.00,WUHU21623XXSP,2013-02-11 18:09:00,
2013-02-11 13:14:00,34.7,29.1,30.02,ENE,67,2.2,4.5,80,0.00,,,0.00,WUHU21623XXSP,2013-02-11 18:14:00,
2013-02-11 13:19:00,34.7,28.8,30.02,ENE,67,3.6,3.6,79,0.00,,,0.00,WUHU21623XXSP,2013-02-11 18:19:00,
2013-02-11 13:24:00,34.7,29.1,30.02,NNE,22,6.0,6.0,80,0.00,,,0.00,WUHU21623XXSP,2013-02-11 18:24:00,
2013-02-11 13:29:00,34.7,28.8,30.02,ESE,112,4.0,7.4,79,0.00,,,0.00,WUHU21623XXSP,2013-02-11 18:29:00,
2013-02-11 13:34:00,34.9,29.0,30.02,NNE,22,3.1,7.4,79,0.00,,,0.00,WUHU21623XXSP,2013-02-11 18:34:00,
2013-02-11 13:39:00,34.9,29.0,30.02,NW,315,0.0,8.9,79,0.00,,,0.00,WUHU21623XXSP,2013-02-11 18:39:00,
2013-02-11 13:44:00,34.9,29.0,30.02,East,90,2.2,8.9,79,0.00,,,0.00,WUHU21623XXSP,2013-02-11 18:44:00,
2013-02-11 13:49:00,34.9,29.0,30.03,SE,135,3.4,3.8,79,0.00,,,0.00,WUHU21623XXSP,2013-02-11 18:49:00,
2013-02-11 13:54:00,34.9,29.0,30.02,ESE,112,2.5,3.4,79,0.00,,,0.00,WUHU21623XXSP,2013-02-11 18:54:00,
2013-02-11 13:59:00,35.2,29.3,30.02,ENE,67,2.9,3.8,79,0.00,,,0.00,WUHU21623XXSP,2013-02-11 18:59:00,
2013-02-11 14:04:00,35.2,29.3,30.02,ENE,67,3.4,3.8,79,0.00,,,0.00,WUHU21623XXSP,2013-02-11 19:04:00,
2013-02-11 14:09:00,35.4,29.5,30.02,ESE,112,2.0,4.5,79,0.00,,,0.00,WUHU21623XXSP,2013-02-11 19:09:00,
2013-02-11 14:14:00,35.4,29.5,30.02,East,90,4.0,4.5,79,0.00,,,0.00,WUHU21623XXSP,2013-02-11 19:14:00,
2013-02-11 14:19:00,35.8,29.9,30.02,NNE,22,4.3,4.3,79,0.00,,,0.00,WUHU21623XXSP,2013-02-11 19:19:00,
2013-02-11 14:24:00,36.0,30.1,30.03,ENE,67,6.5,6.5,79,0.00,,,0.00,WUHU21623XXSP,2013-02-11 19:24:00,
2013-02-11 14:29:00,36.1,30.2,30.02,ENE,67,1.8,6.5,79,0.00,,,0.00,WUHU21623XXSP,2013-02-11 19:29:00,
2013-02-11 14:34:00,36.1,30.2,30.02,NE,45,5.6,5.6,79,0.00,,,0.00,WUHU21623XXSP,2013-02-11 19:34:00,
2013-02-11 14:39:00,36.3,30.4,30.03,ESE,112,5.8,5.8,79,0.00,,,0.00,WUHU21623XXSP,2013-02-11 19:39:00,
2013-02-11 14:44:00,36.0,30.1,30.03,ENE,67,3.1,5.8,79,0.00,,,0.00,WUHU21623XXSP,2013-02-11 19:44:00,
2013-02-11 14:49:00,36.0,30.1,30.02,ENE,67,1.1,3.1,79,0.00,,,0.00,WUHU21623XXSP,2013-02-11 19:49:00,
2013-02-11 14:54:00,35.8,29.9,30.04,ENE,67,1.1,3.1,79,0.00,,,0.00,WUHU21623XXSP,2013-02-11 19:54:00,
2013-02-11 14:59:00,35.8,29.9,30.03,ENE,67,4.3,4.3,79,0.00,,,0.00,WUHU21623XXSP,2013-02-11 19:59:00,
2013-02-11 15:04:00,35.4,29.5,30.03,ESE,112,3.8,4.3,79,0.00,,,0.00,WUHU21623XXSP,2013-02-11 20:04:00,
2013-02-11 15:09:00,35.4,29.8,30.04,East,90,0.0,3.8,80,0.00,,,0.00,WUHU21623XXSP,2013-02-11 20:09:00,
2013-02-11 15:14:00,35.2,29.7,30.04,East,90,4.7,4.7,80,0.00,,,0.00,WUHU21623XXSP,2013-02-11 20:14:00,
2013-02-11 15:19:00,35.2,29.7,30.04,East,90,2.9,4.7,80,0.00,,,0.00,WUHU21623XXSP,2013-02-11 20:19:00,
2013-02-11 15:24:00,35.2,29.7,30.04,East,90,4.7,4.7,80,0.00,,,0.00,WUHU21623XXSP,2013-02-11 20:24:00,
2013-02-11 15:29:00,35.1,29.5,30.05,East,90,3.4,4.7,80,0.00,,,0.00,WUHU21623XXSP,2013-02-11 20:29:00,
2013-02-11 15:34:00,35.2,29.7,30.05,ENE,67,0.9,4.3,80,0.00,,,0.00,WUHU21623XXSP,2013-02-11 20:34:00,
2013-02-11 15:39:00,35.1,29.5,30.05,NNE,22,9.2,9.2,80,0.00,,,0.00,WUHU21623XXSP,2013-02-11 20:39:00,
2013-02-11 15:44:00,34.9,29.3,30.06,NNE,22,0.0,9.2,80,0.00,,,0.00,WUHU21623XXSP,2013-02-11 20:44:00,
2013-02-11 15:49:00,34.9,29.6,30.06,East,90,6.7,6.7,81,0.00,,,0.00,WUHU21623XXSP,2013-02-11 20:49:00,
2013-02-11 15:54:00,34.9,29.6,30.06,SSE,157,0.0,6.7,81,0.00,,,0.00,WUHU21623XXSP,2013-02-11 20:54:00,
2013-02-11 15:59:00,34.9,29.6,30.07,SSE,157,2.7,4.0,81,0.00,,,0.00,WUHU21623XXSP,2013-02-11 20:59:00,
2013-02-11 16:05:00,34.9,29.6,30.07,East,90,4.9,4.9,81,0.00,,,0.00,WUHU21623XXSP,2013-02-11 21:05:00,
2013-02-11 16:10:00,34.7,29.4,30.07,ESE,112,4.9,4.9,81,0.00,,,0.00,WUHU21623XXSP,2013-02-11 21:10:00,
2013-02-11 16:15:00,34.7,29.7,30.07,SSE,157,0.0,4.9,82,0.00,,,0.00,WUHU21623XXSP,2013-02-11 21:15:00,
2013-02-11 16:20:00,34.9,29.9,30.07,South,180,0.7,2.2,82,0.00,,,0.00,WUHU21623XXSP,2013-02-11 21:20:00,
2013-02-11 16:25:00,34.7,29.7,30.08,WSW,247,9.8,9.8,82,0.00,,,0.00,WUHU21623XXSP,2013-02-11 21:25:00,
2013-02-11 16:30:00,34.7,29.9,30.08,NNE,22,2.2,9.8,81,0.00,,,0.00,WUHU21623XXSP,2013-02-11 21:30:00,
2013-02-11 16:35:00,34.9,29.9,30.08,East,90,0.0,6.3,82,0.00,,,0.00,WUHU21623XXSP,2013-02-11 21:35:00,
2013-02-11 16:40:00,34.9,29.9,30.09,NE,45,0.0,6.3,82,0.00,,,0.00,WUHU21623XXSP,2013-02-11 21:40:00,
2013-02-11 16:45:00,34.5,29.5,30.09,ESE,112,0.0,2.0,82,0.00,,,0.00,WUHU21623XXSP,2013-02-11 21:45:00,
2013-02-11 16:50:00,34.7,29.7,30.09,NNE,22,20.6,20.6,82,0.00,,,0.00,WUHU21623XXSP,2013-02-11 21:50:00,
2013-02-11 16:55:00,34.7,29.7,30.09,NNE,22,20.6,20.6,82,0.00,,,0.00,WUHU21623XXSP,2013-02-11 21:55:00,
2013-02-11 17:00:00,34.7,29.7,30.09,NNE,22,20.6,20.6,82,0.00,,,0.00,WUHU21623XXSP,2013-02-11 22:00:00,
2013-02-11 17:05:00,34.7,29.7,30.10,NNE,22,20.6,20.6,82,0.00,,,0.00,WUHU21623XXSP,2013-02-11 22:05:00,
2013-02-11 17:10:00,34.7,29.7,30.10,NNE,22,20.6,20.6,82,0.00,,,0.00,WUHU21623XXSP,2013-02-11 22:10:00,
2013-02-11 17:50:00,34.7,30.0,30.12,East,90,2.2,2.2,83,0.00,,,0.00,WUHU21623XXSP,2013-02-11 22:50:00,
2013-02-11 17:55:00,34.7,30.0,30.12,East,90,2.2,2.2,83,0.00,,,0.00,WUHU21623XXSP,2013-02-11 22:55:00,
2013-02-11 18:00:00,34.7,30.0,30.12,East,90,2.2,2.2,83,0.00,,,0.00,WUHU21623XXSP,2013-02-11 23:00:00,
2013-02-11 18:05:00,34.7,30.0,30.12,East,90,2.2,2.2,83,0.00,,,0.00,WUHU21623XXSP,2013-02-11 23:05:00,
2013-02-11 18:43:00,34.9,29.6,30.16,West,270,1.8,1.8,81,0.00,,,0.00,WUHU21623XXSP,2013-02-11 23:43:00,
2013-02-11 18:48:00,34.9,29.6,30.16,NNE,22,0.0,5.4,81,0.00,,,0.00,WUHU21623XXSP,2013-02-11 23:48:00,
2013-02-11 18:53:00,34.9,29.6,30.16,East,90,6.7,6.7,81,0.00,,,0.00,WUHU21623XXSP,2013-02-11 23:53:00,
2013-02-11 18:58:00,34.9,29.6,30.16,East,90,6.7,6.7,81,0.00,,,0.00,WUHU21623XXSP,2013-02-11 23:58:00,
2013-02-11 19:03:00,34.9,29.6,30.17,East,90,6.7,6.7,81,0.00,,,0.00,WUHU21623XXSP,2013-02-12 00:03:00,
2013-02-11 19:08:00,34.9,29.6,30.17,ESE,112,0.0,6.7,81,0.00,,,0.00,WUHU21623XXSP,2013-02-12 00:08:00,
2013-02-11 19:13:00,34.7,29.4,30.17,ESE,112,3.1,3.1,81,0.00,,,0.00,WUHU21623XXSP,2013-02-12 00:13:00,
2013-02-11 19:18:00,34.7,29.4,30.18,ENE,67,5.1,5.1,81,0.00,,,0.00,WUHU21623XXSP,2013-02-12 00:18:00,
2013-02-11 19:23:00,34.7,29.4,30.18,ENE,67,5.1,5.1,81,0.00,,,0.00,WUHU21623XXSP,2013-02-12 00:23:00,
2013-02-11 19:28:00,34.7,29.4,30.19,ENE,67,9.8,9.8,81,0.00,,,0.00,WUHU21623XXSP,2013-02-12 00:28:00,
2013-02-11 19:33:00,34.5,29.4,30.19,ESE,112,6.0,9.8,81,0.00,,,0.00,WUHU21623XXSP,2013-02-12 00:33:00,
2013-02-11 19:38:00,34.5,29.2,30.20,ENE,67,4.0,6.0,81,0.00,,,0.00,WUHU21623XXSP,2013-02-12 00:38:00,
2013-02-11 19:43:00,34.5,29.2,30.19,East,90,0.0,7.4,81,0.00,,,0.00,WUHU21623XXSP,2013-02-12 00:43:00,
2013-02-11 19:48:00,34.5,29.2,30.19,SSE,157,0.0,7.4,81,0.00,,,0.00,WUHU21623XXSP,2013-02-12 00:48:00,
2013-02-11 19:53:00,34.5,29.2,30.20,SSE,157,0.0,0.0,81,0.00,,,0.00,WUHU21623XXSP,2013-02-12 00:53:00,
2013-02-11 19:58:00,34.3,29.0,30.20,ESE,112,3.8,7.2,81,0.00,,,0.00,WUHU21623XXSP,2013-02-12 00:58:00,
2013-02-11 20:03:00,34.3,29.0,30.20,NE,45,0.0,7.2,81,0.00,,,0.00,WUHU21623XXSP,2013-02-12 01:03:00,
2013-02-11 20:08:00,34.3,29.0,30.20,East,90,2.2,2.2,81,0.00,,,0.00,WUHU21623XXSP,2013-02-12 01:08:00,
2013-02-11 20:13:00,34.3,29.0,30.20,NNE,22,1.6,2.2,81,0.00,,,0.00,WUHU21623XXSP,2013-02-12 01:13:00,
2013-02-11 20:18:00,34.3,29.0,30.20,ENE,67,2.7,2.7,81,0.00,,,0.00,WUHU21623XXSP,2013-02-12 01:18:00,
2013-02-11 20:24:00,34.3,29.0,30.21,ENE,67,2.7,2.7,81,0.00,,,0.00,WUHU21623XXSP,2013-02-12 01:24:00,
2013-02-11 20:29:00,34.2,28.9,30.21,SSE,157,0.0,2.7,81,0.00,,,0.00,WUHU21623XXSP,2013-02-12 01:29:00,
2013-02-11 20:34:00,34.2,28.9,30.21,SSE,157,5.4,5.4,81,0.00,,,0.00,WUHU21623XXSP,2013-02-12 01:34:00,
2013-02-11 20:39:00,34.2,28.9,30.22,ESE,112,2.0,5.4,81,0.00,,,0.00,WUHU21623XXSP,2013-02-12 01:39:00,
2013-02-11 20:44:00,34.0,28.7,30.21,East,90,2.0,2.0,81,0.00,,,0.00,WUHU21623XXSP,2013-02-12 01:44:00,
2013-02-11 20:49:00,34.0,28.7,30.22,East,90,2.0,2.0,81,0.00,,,0.00,WUHU21623XXSP,2013-02-12 01:49:00,
2013-02-11 20:54:00,34.0,28.7,30.22,East,90,2.0,2.0,81,0.00,,,0.00,WUHU21623XXSP,2013-02-12 01:54:00,
2013-02-11 20:59:00,34.0,28.7,30.22,East,90,2.0,2.0,81,0.00,,,0.00,WUHU21623XXSP,2013-02-12 01:59:00,
2013-02-11 21:04:00,34.0,28.7,30.23,East,90,2.0,2.0,81,0.00,,,0.00,WUHU21623XXSP,2013-02-12 02:04:00,
2013-02-11 21:09:00,33.8,28.2,30.23,SSW,202,0.0,2.0,80,0.00,,,0.00,WUHU21623XXSP,2013-02-12 02:09:00,
2013-02-11 21:14:00,33.8,28.2,30.24,NE,45,6.5,6.5,80,0.00,,,0.00,WUHU21623XXSP,2013-02-12 02:14:00,
2013-02-11 21:19:00,33.6,28.1,30.24,East,90,0.0,6.5,80,0.00,,,0.00,WUHU21623XXSP,2013-02-12 02:19:00,
2013-02-11 21:24:00,33.6,28.1,30.24,East,90,0.0,0.0,80,0.00,,,0.00,WUHU21623XXSP,2013-02-12 02:24:00,
2013-02-11 21:29:00,33.6,28.1,30.24,East,90,0.0,0.0,80,0.00,,,0.00,WUHU21623XXSP,2013-02-12 02:29:00,
2013-02-11 21:34:00,33.6,28.1,30.25,East,90,0.0,0.0,80,0.00,,,0.00,WUHU21623XXSP,2013-02-12 02:34:00,
2013-02-11 21:39:00,33.6,28.1,30.24,South,180,0.0,0.0,80,0.00,,,0.00,WUHU21623XXSP,2013-02-12 02:39:00,
2013-02-11 21:44:00,33.4,27.9,30.25,ESE,112,3.6,4.5,80,0.00,,,0.00,WUHU21623XXSP,2013-02-12 02:44:00,
2013-02-11 21:49:00,33.4,27.9,30.26,ENE,67,7.2,7.2,80,0.00,,,0.00,WUHU21623XXSP,2013-02-12 02:49:00,
2013-02-11 21:54:00,33.3,27.7,30.25,East,90,2.2,7.2,80,0.00,,,0.00,WUHU21623XXSP,2013-02-12 02:54:00,
2013-02-11 21:59:00,33.3,27.7,30.26,ESE,112,4.7,4.7,81,0.00,,,0.00,WUHU21623XXSP,2013-02-12 02:59:00,
2013-02-11 22:04:00,33.1,27.9,30.26,ESE,112,4.7,4.7,81,0.00,,,0.00,WUHU21623XXSP,2013-02-12 03:04:00,
2013-02-11 22:09:00,32.9,27.7,30.26,ENE,67,3.1,4.7,81,0.00,,,0.00,WUHU21623XXSP,2013-02-12 03:09:00,
2013-02-11 22:14:00,32.7,27.5,30.26,NNE,22,5.6,5.6,81,0.00,,,0.00,WUHU21623XXSP,2013-02-12 03:14:00,
2013-02-11 22:19:00,32.7,27.5,30.26,East,90,1.8,5.8,81,0.00,,,0.00,WUHU21623XXSP,2013-02-12 03:19:00,
2013-02-11 22:24:00,32.7,27.5,30.26,East,90,1.8,5.8,81,0.00,,,0.00,WUHU21623XXSP,2013-02-12 03:24:00,
2013-02-11 22:29:00,32.7,27.5,30.26,East,90,1.8,1.8,81,0.00,,,0.00,WUHU21623XXSP,2013-02-12 03:29:00,
2013-02-11 22:34:00,32.7,27.5,30.27,East,90,1.8,1.8,81,0.00,,,0.00,WUHU21623XXSP,2013-02-12 03:34:00,
2013-02-11 22:39:00,32.5,27.4,30.26,East,90,0.0,4.5,81,0.00,,,0.00,WUHU21623XXSP,2013-02-12 03:39:00,
2013-02-11 22:44:00,32.4,27.2,30.27,East,90,4.7,4.7,81,0.00,,,0.00,WUHU21623XXSP,2013-02-12 03:44:00,
2013-02-11 22:49:00,32.4,27.2,30.27,East,90,2.5,4.7,81,0.00,,,0.00,WUHU21623XXSP,2013-02-12 03:49:00,
2013-02-11 22:54:00,32.2,27.1,30.27,SE,135,1.8,4.7,81,0.00,,,0.00,WUHU21623XXSP,2013-02-12 03:54:00,
2013-02-11 22:59:00,32.2,27.1,30.27,WSW,247,10.5,10.5,81,0.00,,,0.00,WUHU21623XXSP,2013-02-12 03:59:00,
2013-02-11 23:04:00,32.2,27.1,30.28,East,90,2.0,10.5,81,0.00,,,0.00,WUHU21623XXSP,2013-02-12 04:04:00,
2013-02-11 23:09:00,32.2,27.1,30.27,NNE,22,2.0,2.0,81,0.00,,,0.00,WUHU21623XXSP,2013-02-12 04:09:00,
2013-02-11 23:14:00,32.2,27.1,30.27,SE,135,4.3,4.3,81,0.00,,,0.00,WUHU21623XXSP,2013-02-12 04:14:00,
2013-02-11 23:19:00,32.0,26.9,30.28,East,90,2.7,4.3,81,0.00,,,0.00,WUHU21623XXSP,2013-02-12 04:19:00,
2013-02-11 23:24:00,32.0,26.9,30.28,East,90,0.0,4.3,81,0.00,,,0.00,WUHU21623XXSP,2013-02-12 04:24:00,
2013-02-11 23:29:00,31.8,26.4,30.28,SSE,157,2.0,2.0,81,0.00,,,0.00,WUHU21623XXSP,2013-02-12 04:29:00,
2013-02-11 23:34:00,31.8,26.4,30.28,ESE,112,0.7,4.0,80,0.00,,,0.00,WUHU21623XXSP,2013-02-12 04:34:00,
2013-02-11 23:39:00,31.8,26.4,30.28,North,0,2.2,4.0,80,0.00,,,0.00,WUHU21623XXSP,2013-02-12 04:39:00,
2013-02-11 23:44:00,31.8,26.4,30.28,East,90,0.0,5.8,80,0.00,,,0.00,WUHU21623XXSP,2013-02-12 04:44:00,
2013-02-11 23:49:00,31.8,26.4,30.28,SSE,157,1.6,5.8,80,0.00,,,0.00,WUHU21623XXSP,2013-02-12 04:49:00,
2013-02-11 23:54:00,31.8,26.4,30.28,ESE,112,0.0,4.0,80,0.00,,,0.00,WUHU21623XXSP,2013-02-12 04:54:00,
2013-02-11 23:59:00,31.6,26.2,30.29,ENE,67,2.2,4.0,80,0.00,,,0.00,WUHU21623XXSP,2013-02-12 04:59:00,